This is the latest recevied weather packets stored in our database for station/object DL7MAP-13. If no packets are shown the sender has not sent any weather packets the latest 10 day(s).
| Time | Temp. | Humidity | Pressure | Rain* | Wind** | Luminosity | Snow |
|---|---|---|---|---|---|---|---|
| 1777875187 | 16.67° C | 69% | 1007.4 hPa | - | - | - | - |
| 1777874287 | 16.67° C | 69% | 1007.2 hPa | - | - | - | - |
| 1777873387 | 16.11° C | 70% | 1007.2 hPa | - | - | - | - |
| 1777872487 | 16.11° C | 70% | 1006.7 hPa | - | - | - | - |
| 1777871587 | 16.11° C | 69% | 1006.4 hPa | - | - | - | - |
| 1777870686 | 16.11° C | 69% | 1007.1 hPa | - | - | - | - |
| 1777869787 | 16.11° C | 68% | 1006.2 hPa | - | - | - | - |
| 1777868887 | 16.11° C | 68% | 1006.3 hPa | - | - | - | - |
| 1777867987 | 16.11° C | 67% | 1006.2 hPa | - | - | - | - |
| 1777867087 | 16.67° C | 67% | 1006.2 hPa | - | - | - | - |
| 1777866187 | 16.67° C | 66% | 1006 hPa | - | - | - | - |
| 1777865287 | 17.78° C | 59% | 1006 hPa | - | - | - | - |
| 1777864386 | 17.78° C | 53% | 1005.5 hPa | - | - | - | - |
| 1777863487 | 18.33° C | 52% | 1006.6 hPa | - | - | - | - |
| 1777862587 | 18.33° C | 52% | 1006.2 hPa | - | - | - | - |
| 1777861687 | 18.33° C | 50% | 1006.5 hPa | - | - | - | - |
| 1777860787 | 18.89° C | 51% | 1006.3 hPa | - | - | - | - |
| 1777859887 | 18.89° C | 49% | 1006.8 hPa | - | - | - | - |
| 1777858987 | 19.44° C | 48% | 1006.3 hPa | - | - | - | - |
| 1777858087 | 19.44° C | 47% | 1005.7 hPa | - | - | - | - |
| 1777857187 | 20° C | 46% | 1005.8 hPa | - | - | - | - |
| 1777856287 | 20° C | 45% | 1005.4 hPa | - | - | - | - |
| 1777855387 | 20° C | 45% | 1005.4 hPa | - | - | - | - |
| 1777854487 | 20.56° C | 44% | 1005.3 hPa | - | - | - | - |
| 1777853587 | 20.56° C | 42% | 1005.4 hPa | - | - | - | - |
* Rain since midnight (hover to see other rain measurements)
** Current wind speed in m/s (hover to see current wind gust speed)